Year,Month,Day,Hour,Minute,Value (Times are PST for windgust in km/hr)
2011,07,06,07,48,1.60
2011,07,06,08,01,1.60
2011,07,06,08,09,1.60
2011,07,06,08,12,1.60
2011,07,06,08,14,1.60
2011,07,06,08,15,3.20
2011,07,06,08,16,4.80
2011,07,06,08,17,4.80
2011,07,06,08,18,3.20
2011,07,06,08,19,3.20
2011,07,06,08,20,1.60
2011,07,06,08,23,1.60
2011,07,06,08,24,3.20
2011,07,06,08,25,4.80
2011,07,06,08,26,3.20
2011,07,06,08,27,1.60
2011,07,06,08,28,1.60
2011,07,06,08,29,3.20
2011,07,06,08,30,3.20
2011,07,06,08,31,1.60
2011,07,06,08,32,1.60
2011,07,06,08,33,1.60
2011,07,06,08,34,1.60
2011,07,06,08,35,1.60
2011,07,06,08,36,3.20
2011,07,06,08,37,3.20
2011,07,06,08,38,3.20
2011,07,06,08,39,3.20
2011,07,06,08,40,3.20
2011,07,06,08,41,3.20
2011,07,06,08,42,3.20
2011,07,06,08,43,1.60
2011,07,06,08,44,6.40
2011,07,06,08,45,4.80
2011,07,06,08,46,3.20
2011,07,06,08,48,1.60
2011,07,06,08,49,1.60
2011,07,06,08,50,4.80
2011,07,06,08,51,3.20
2011,07,06,08,52,3.20
2011,07,06,08,53,1.60
2011,07,06,08,54,1.60
2011,07,06,08,55,1.60
2011,07,06,08,56,3.20
2011,07,06,08,57,3.20
2011,07,06,08,58,1.60
2011,07,06,08,59,1.60
2011,07,06,09,00,1.60
2011,07,06,09,02,1.60
2011,07,06,09,03,1.60
2011,07,06,09,04,3.20
2011,07,06,09,06,1.60
2011,07,06,09,07,1.60
2011,07,06,09,08,3.20
2011,07,06,09,09,1.60
2011,07,06,09,10,1.60
2011,07,06,09,11,1.60
2011,07,06,09,12,1.60
2011,07,06,09,13,4.80
2011,07,06,09,14,4.80
2011,07,06,09,15,4.80
2011,07,06,09,16,6.40
2011,07,06,09,17,3.20
2011,07,06,09,18,1.60
2011,07,06,09,19,1.60
2011,07,06,09,20,3.20
2011,07,06,09,21,3.20
2011,07,06,09,22,1.60
2011,07,06,09,23,1.60
2011,07,06,09,24,3.20
2011,07,06,09,25,3.20
2011,07,06,09,26,6.40
2011,07,06,09,27,1.60
2011,07,06,09,28,3.20
2011,07,06,09,29,3.20
2011,07,06,09,30,1.60
2011,07,06,09,31,1.60
2011,07,06,09,32,4.80
2011,07,06,09,33,8.10
2011,07,06,09,34,4.80
2011,07,06,09,35,9.60
2011,07,06,09,36,6.40
2011,07,06,09,37,8.10
2011,07,06,09,38,8.10
2011,07,06,09,39,3.20
2011,07,06,09,40,9.60
2011,07,06,09,41,6.40
2011,07,06,09,42,4.80
2011,07,06,09,43,1.60
2011,07,06,09,44,4.80
2011,07,06,09,45,3.20
2011,07,06,09,46,1.60
2011,07,06,09,47,1.60
2011,07,06,09,48,1.60
2011,07,06,09,49,8.10
2011,07,06,09,50,11.30
2011,07,06,09,51,3.20
2011,07,06,09,52,1.60
2011,07,06,09,53,1.60
2011,07,06,09,54,1.60
2011,07,06,09,55,4.80
2011,07,06,09,56,4.80
2011,07,06,09,57,1.60
2011,07,06,09,58,3.20
2011,07,06,09,59,1.60
2011,07,06,10,00,3.20
2011,07,06,10,01,6.40
2011,07,06,10,02,6.40
2011,07,06,10,03,8.10
2011,07,06,10,04,4.80
2011,07,06,10,05,6.40
2011,07,06,10,06,6.40
2011,07,06,10,07,3.20
2011,07,06,10,08,1.60
2011,07,06,10,09,3.20
2011,07,06,10,10,3.20
2011,07,06,10,11,4.80
2011,07,06,10,12,4.80
2011,07,06,10,13,3.20
2011,07,06,10,14,4.80
2011,07,06,10,15,3.20
2011,07,06,10,16,3.20
2011,07,06,10,17,6.40
2011,07,06,10,18,4.80
2011,07,06,10,19,3.20
2011,07,06,10,20,4.80
2011,07,06,10,21,3.20
2011,07,06,10,22,6.40
2011,07,06,10,23,3.20
2011,07,06,10,24,8.10
2011,07,06,10,25,8.10
2011,07,06,10,26,4.80
2011,07,06,10,27,6.40
2011,07,06,10,28,1.60
2011,07,06,10,29,9.60
2011,07,06,10,30,8.10
2011,07,06,10,31,11.30
2011,07,06,10,32,3.20
2011,07,06,10,33,4.80
2011,07,06,10,34,8.10
2011,07,06,10,35,4.80
2011,07,06,10,36,9.60
2011,07,06,10,37,9.60
2011,07,06,10,38,14.50
2011,07,06,10,39,8.10
2011,07,06,10,40,4.80
2011,07,06,10,41,4.80
2011,07,06,10,42,9.60
2011,07,06,10,43,12.90
2011,07,06,10,44,9.60
2011,07,06,10,45,8.10
2011,07,06,10,46,8.10
2011,07,06,10,47,4.80
2011,07,06,10,48,8.10
2011,07,06,10,49,4.80
2011,07,06,10,50,3.20
2011,07,06,10,51,4.80
2011,07,06,10,52,9.60
2011,07,06,10,53,11.30
2011,07,06,10,54,9.60
2011,07,06,10,55,11.30
2011,07,06,10,56,6.40
2011,07,06,10,57,4.80
2011,07,06,10,58,4.80
2011,07,06,10,59,4.80
2011,07,06,11,00,3.20
2011,07,06,11,01,9.60
2011,07,06,11,02,14.50
2011,07,06,11,03,14.50
2011,07,06,11,04,4.80
2011,07,06,11,05,6.40
2011,07,06,11,06,14.50
2011,07,06,11,07,9.60
2011,07,06,11,08,9.60
2011,07,06,11,09,8.10
2011,07,06,11,10,11.30
2011,07,06,11,11,3.20
2011,07,06,11,12,4.80
2011,07,06,11,13,8.10
2011,07,06,11,14,11.30
2011,07,06,11,15,8.10
2011,07,06,11,16,4.80
2011,07,06,11,17,4.80
2011,07,06,11,18,6.40
2011,07,06,11,19,6.40
2011,07,06,11,20,14.50
2011,07,06,11,21,9.60
2011,07,06,11,22,6.40
2011,07,06,11,23,1.60
2011,07,06,11,24,1.60
2011,07,06,11,25,4.80
2011,07,06,11,26,4.80
2011,07,06,11,27,9.60
2011,07,06,11,28,6.40
2011,07,06,11,29,9.60
2011,07,06,11,30,8.10
2011,07,06,11,31,6.40
2011,07,06,11,32,1.60
2011,07,06,11,33,4.80
2011,07,06,11,35,9.60
2011,07,06,11,36,11.30
2011,07,06,11,37,14.50
2011,07,06,11,38,16.10
2011,07,06,11,39,9.60
2011,07,06,11,40,6.40
2011,07,06,11,41,8.10
2011,07,06,11,42,9.60
2011,07,06,11,43,4.80
2011,07,06,11,44,1.60
2011,07,06,11,45,6.40
2011,07,06,11,46,6.40
2011,07,06,11,47,8.10
2011,07,06,11,48,11.30
2011,07,06,11,49,12.90
2011,07,06,11,50,6.40
2011,07,06,11,51,3.20
2011,07,06,11,52,6.40
2011,07,06,11,53,6.40
2011,07,06,11,54,1.60
2011,07,06,11,55,6.40
2011,07,06,11,56,11.30
2011,07,06,11,57,9.60
2011,07,06,11,58,8.10
2011,07,06,11,59,6.40
2011,07,06,12,00,8.10
2011,07,06,12,01,9.60
2011,07,06,12,02,14.50
2011,07,06,12,03,11.30
2011,07,06,12,04,4.80
2011,07,06,12,05,3.20
2011,07,06,12,06,4.80
2011,07,06,12,07,6.40
2011,07,06,12,08,14.50
2011,07,06,12,09,9.60
2011,07,06,12,10,11.30
2011,07,06,12,11,17.70
2011,07,06,12,12,17.70
2011,07,06,12,13,6.40
2011,07,06,12,14,8.10
2011,07,06,12,15,4.80
2011,07,06,12,16,19.30
2011,07,06,12,17,20.90
2011,07,06,12,18,14.50
2011,07,06,12,19,6.40
2011,07,06,12,20,8.10
2011,07,06,12,21,8.10
2011,07,06,12,22,9.60
2011,07,06,12,23,4.80
2011,07,06,12,24,8.10
2011,07,06,12,25,9.60
2011,07,06,12,26,4.80
2011,07,06,12,27,9.60
2011,07,06,12,28,6.40
2011,07,06,12,29,17.70
2011,07,06,12,30,8.10
2011,07,06,12,31,3.20
2011,07,06,12,32,8.10
2011,07,06,12,33,12.90
2011,07,06,12,34,6.40
2011,07,06,12,35,4.80
2011,07,06,12,36,6.40
2011,07,06,12,37,8.10
2011,07,06,12,38,6.40
2011,07,06,12,39,3.20
2011,07,06,12,40,6.40
2011,07,06,12,41,14.50
2011,07,06,12,42,14.50
2011,07,06,12,43,14.50
2011,07,06,12,44,11.30
2011,07,06,12,45,8.10
2011,07,06,12,46,12.90
2011,07,06,12,47,12.90
2011,07,06,12,48,9.60
2011,07,06,12,49,16.10
2011,07,06,12,50,6.40
2011,07,06,12,51,3.20
2011,07,06,12,52,3.20
2011,07,06,12,53,8.10
2011,07,06,12,54,9.60
2011,07,06,12,55,9.60
2011,07,06,12,56,6.40
2011,07,06,12,57,4.80
2011,07,06,12,58,3.20
2011,07,06,12,59,9.60
2011,07,06,13,00,9.60
2011,07,06,13,01,11.30
2011,07,06,13,02,8.10
2011,07,06,13,03,11.30
2011,07,06,13,04,8.10
2011,07,06,13,05,9.60
2011,07,06,13,06,8.10
2011,07,06,13,07,1.60
2011,07,06,13,08,1.60
2011,07,06,13,09,9.60
2011,07,06,13,10,14.50
2011,07,06,13,11,9.60
2011,07,06,13,12,11.30
2011,07,06,13,13,4.80
2011,07,06,13,14,9.60
2011,07,06,13,15,16.10
2011,07,06,13,16,19.30
2011,07,06,13,17,6.40
2011,07,06,13,18,8.10
2011,07,06,13,19,11.30
2011,07,06,13,20,11.30
2011,07,06,13,21,3.20
2011,07,06,13,22,17.70
2011,07,06,13,23,14.50
2011,07,06,13,24,8.10
2011,07,06,13,25,6.40
2011,07,06,13,26,6.40
2011,07,06,13,27,6.40
2011,07,06,13,28,11.30
2011,07,06,13,29,6.40
2011,07,06,13,30,4.80
2011,07,06,13,31,11.30
2011,07,06,13,32,9.60
2011,07,06,13,33,8.10
2011,07,06,13,34,9.60
2011,07,06,13,35,16.10
2011,07,06,13,36,16.10
2011,07,06,13,37,17.70
2011,07,06,13,38,8.10
2011,07,06,13,39,9.60
2011,07,06,13,40,4.80
2011,07,06,13,41,6.40
2011,07,06,13,42,8.10
2011,07,06,13,43,11.30
2011,07,06,13,44,6.40
2011,07,06,13,45,14.50
2011,07,06,13,46,16.10
2011,07,06,13,47,11.30
2011,07,06,13,48,16.10
2011,07,06,13,49,11.30
2011,07,06,13,50,17.70
2011,07,06,13,51,14.50
2011,07,06,13,52,11.30
2011,07,06,13,53,11.30
2011,07,06,13,54,9.60
2011,07,06,13,55,11.30
2011,07,06,13,56,9.60
2011,07,06,13,57,8.10
2011,07,06,13,58,4.80
2011,07,06,13,59,6.40
2011,07,06,14,00,8.10
2011,07,06,14,01,12.90
2011,07,06,14,02,17.70
2011,07,06,14,03,8.10
2011,07,06,14,04,8.10
2011,07,06,14,05,6.40
2011,07,06,14,06,12.90
2011,07,06,14,07,4.80
2011,07,06,14,08,11.30
2011,07,06,14,09,17.70
2011,07,06,14,10,12.90
2011,07,06,14,11,11.30
2011,07,06,14,12,8.10
2011,07,06,14,13,14.50
2011,07,06,14,14,16.10
2011,07,06,14,15,9.60
2011,07,06,14,16,9.60
2011,07,06,14,17,9.60
2011,07,06,14,18,9.60
2011,07,06,14,19,17.70
2011,07,06,14,20,16.10
2011,07,06,14,21,8.10
2011,07,06,14,22,14.50
2011,07,06,14,23,14.50
2011,07,06,14,24,17.70
2011,07,06,14,25,16.10
2011,07,06,14,26,14.50
2011,07,06,14,27,17.70
2011,07,06,14,28,8.10
2011,07,06,14,29,17.70
2011,07,06,14,30,9.60
2011,07,06,14,31,4.80
2011,07,06,14,32,11.30
2011,07,06,14,33,17.70
2011,07,06,14,34,19.30
2011,07,06,14,35,20.90
2011,07,06,14,36,17.70
2011,07,06,14,37,6.40
2011,07,06,14,38,11.30
2011,07,06,14,39,9.60
2011,07,06,14,40,16.10
2011,07,06,14,41,14.50
2011,07,06,14,42,9.60
2011,07,06,14,43,16.10
2011,07,06,14,44,17.70
2011,07,06,14,45,11.30
2011,07,06,14,46,9.60
2011,07,06,14,47,9.60
2011,07,06,14,48,9.60
2011,07,06,14,49,4.80
2011,07,06,14,50,8.10
2011,07,06,14,51,9.60
2011,07,06,14,52,4.80
2011,07,06,14,53,8.10
2011,07,06,14,54,12.90
2011,07,06,14,55,9.60
2011,07,06,14,56,11.30
2011,07,06,14,57,16.10
2011,07,06,14,58,14.50
2011,07,06,14,59,9.60
2011,07,06,15,00,1.60
2011,07,06,15,01,9.60
2011,07,06,15,02,9.60
2011,07,06,15,03,9.60
2011,07,06,15,04,9.60
2011,07,06,15,05,6.40
2011,07,06,15,06,8.10
2011,07,06,15,07,4.80
2011,07,06,15,08,11.30
2011,07,06,15,09,11.30
2011,07,06,15,10,6.40
2011,07,06,15,11,17.70
2011,07,06,15,12,16.10
2011,07,06,15,13,9.60
2011,07,06,15,14,9.60
2011,07,06,15,15,6.40
2011,07,06,15,16,6.40
2011,07,06,15,17,12.90
2011,07,06,15,18,17.70
2011,07,06,15,19,6.40
2011,07,06,15,20,11.30
2011,07,06,15,21,9.60
2011,07,06,15,22,8.10
2011,07,06,15,23,9.60
2011,07,06,15,24,6.40
2011,07,06,15,25,6.40
2011,07,06,15,26,6.40
2011,07,06,15,27,11.30
2011,07,06,15,28,4.80
2011,07,06,15,29,9.60
2011,07,06,15,30,16.10
2011,07,06,15,31,14.50
2011,07,06,15,32,14.50
2011,07,06,15,33,16.10
2011,07,06,15,34,19.30
2011,07,06,15,35,11.30
2011,07,06,15,36,16.10
2011,07,06,15,37,8.10
2011,07,06,15,38,3.20
2011,07,06,15,39,11.30
2011,07,06,15,40,4.80
2011,07,06,15,41,9.60
2011,07,06,15,42,11.30
2011,07,06,15,43,14.50
2011,07,06,15,44,11.30
2011,07,06,15,45,9.60
2011,07,06,15,46,8.10
2011,07,06,15,47,17.70
2011,07,06,15,48,9.60
2011,07,06,15,49,14.50
2011,07,06,15,50,6.40
2011,07,06,15,51,9.60
2011,07,06,15,52,8.10
2011,07,06,15,53,20.90
2011,07,06,15,54,17.70
2011,07,06,15,55,9.60
2011,07,06,15,56,8.10
2011,07,06,15,57,12.90
2011,07,06,15,58,16.10
2011,07,06,15,59,12.90
2011,07,06,16,00,12.90
2011,07,06,16,01,16.10
2011,07,06,16,02,9.60
2011,07,06,16,03,9.60
2011,07,06,16,04,11.30
2011,07,06,16,05,9.60
2011,07,06,16,06,17.70
2011,07,06,16,07,11.30
2011,07,06,16,08,6.40
2011,07,06,16,09,8.10
2011,07,06,16,10,9.60
2011,07,06,16,11,9.60
2011,07,06,16,12,9.60
2011,07,06,16,13,14.50
2011,07,06,16,14,14.50
2011,07,06,16,15,16.10
2011,07,06,16,16,6.40
2011,07,06,16,17,9.60
2011,07,06,16,18,11.30
2011,07,06,16,19,9.60
2011,07,06,16,20,4.80
2011,07,06,16,21,8.10
2011,07,06,16,22,16.10
2011,07,06,16,23,4.80
2011,07,06,16,24,11.30
2011,07,06,16,25,8.10
2011,07,06,16,26,4.80
2011,07,06,16,27,4.80
2011,07,06,16,28,12.90
2011,07,06,16,29,11.30
2011,07,06,16,30,14.50
2011,07,06,16,31,11.30
2011,07,06,16,32,11.30
2011,07,06,16,33,9.60
2011,07,06,16,34,8.10
2011,07,06,16,35,6.40
2011,07,06,16,36,8.10
2011,07,06,16,37,8.10
2011,07,06,16,38,8.10
2011,07,06,16,39,6.40
2011,07,06,16,40,14.50
2011,07,06,16,41,9.60
2011,07,06,16,42,8.10
2011,07,06,16,43,9.60
2011,07,06,16,44,11.30
2011,07,06,16,45,17.70
2011,07,06,16,46,9.60
2011,07,06,16,47,9.60
2011,07,06,16,48,11.30
2011,07,06,16,49,16.10
2011,07,06,16,50,9.60
2011,07,06,16,51,9.60
2011,07,06,16,52,6.40
2011,07,06,16,53,8.10
2011,07,06,16,54,9.60
2011,07,06,16,55,8.10
2011,07,06,16,56,9.60
2011,07,06,16,57,9.60
2011,07,06,16,58,6.40
2011,07,06,16,59,4.80
2011,07,06,17,00,8.10
2011,07,06,17,01,11.30
2011,07,06,17,02,8.10
2011,07,06,17,03,8.10
2011,07,06,17,04,9.60
2011,07,06,17,05,9.60
2011,07,06,17,06,9.60
2011,07,06,17,07,6.40
2011,07,06,17,08,4.80
2011,07,06,17,09,9.60
2011,07,06,17,10,9.60
2011,07,06,17,11,4.80
2011,07,06,17,12,9.60
2011,07,06,17,13,11.30
2011,07,06,17,14,3.20
2011,07,06,17,15,9.60
2011,07,06,17,16,1.60
2011,07,06,17,17,3.20
2011,07,06,17,18,4.80
2011,07,06,17,19,3.20
2011,07,06,17,21,4.80
2011,07,06,17,22,4.80
2011,07,06,17,23,8.10
2011,07,06,17,24,6.40
2011,07,06,17,25,6.40
2011,07,06,17,28,3.20
2011,07,06,17,29,8.10
2011,07,06,17,30,3.20
2011,07,06,17,31,1.60
2011,07,06,17,32,8.10
2011,07,06,17,33,11.30
2011,07,06,17,34,8.10
2011,07,06,17,35,14.50
2011,07,06,17,36,6.40
2011,07,06,17,37,1.60
2011,07,06,17,38,6.40
2011,07,06,17,39,6.40
2011,07,06,17,40,8.10
2011,07,06,17,41,8.10
2011,07,06,17,42,9.60
2011,07,06,17,43,14.50
2011,07,06,17,44,17.70
2011,07,06,17,45,16.10
2011,07,06,17,46,11.30
2011,07,06,17,47,11.30
2011,07,06,17,48,8.10
2011,07,06,17,49,8.10
2011,07,06,17,50,11.30
2011,07,06,17,51,17.70
2011,07,06,17,52,16.10
2011,07,06,17,53,14.50
2011,07,06,17,54,14.50
2011,07,06,17,55,9.60
2011,07,06,17,56,11.30
2011,07,06,17,57,11.30
2011,07,06,17,58,16.10
2011,07,06,17,59,11.30
2011,07,06,18,00,6.40
2011,07,06,18,01,6.40
2011,07,06,18,02,8.10
2011,07,06,18,03,6.40
2011,07,06,18,04,8.10
2011,07,06,18,05,9.60
2011,07,06,18,06,11.30
2011,07,06,18,07,6.40
2011,07,06,18,08,3.20
2011,07,06,18,09,11.30
2011,07,06,18,10,14.50
2011,07,06,18,11,14.50
2011,07,06,18,12,11.30
2011,07,06,18,13,11.30
2011,07,06,18,14,8.10
2011,07,06,18,15,9.60
2011,07,06,18,16,8.10
2011,07,06,18,17,11.30
2011,07,06,18,18,9.60
2011,07,06,18,19,6.40
2011,07,06,18,20,8.10
2011,07,06,18,21,9.60
2011,07,06,18,22,11.30
2011,07,06,18,23,8.10
2011,07,06,18,24,14.50
2011,07,06,18,25,14.50
2011,07,06,18,26,16.10
2011,07,06,18,27,9.60
2011,07,06,18,28,8.10
2011,07,06,18,29,9.60
2011,07,06,18,30,8.10
2011,07,06,18,31,8.10
2011,07,06,18,32,8.10
2011,07,06,18,33,6.40
2011,07,06,18,34,3.20
2011,07,06,18,35,6.40
2011,07,06,18,36,1.60
2011,07,06,18,37,3.20
2011,07,06,18,38,4.80
2011,07,06,18,39,4.80
2011,07,06,18,40,4.80
2011,07,06,18,41,3.20
2011,07,06,18,42,4.80
2011,07,06,18,43,4.80
2011,07,06,18,44,3.20
2011,07,06,18,45,8.10
2011,07,06,18,46,3.20
2011,07,06,18,47,4.80
2011,07,06,18,48,4.80
2011,07,06,18,50,8.10
2011,07,06,18,51,6.40
2011,07,06,18,52,4.80
2011,07,06,18,53,3.20
2011,07,06,18,54,3.20
2011,07,06,18,55,1.60
2011,07,06,18,56,3.20
2011,07,06,18,57,1.60
2011,07,06,18,58,3.20
2011,07,06,18,59,4.80
2011,07,06,19,00,4.80
2011,07,06,19,01,4.80
2011,07,06,19,02,1.60
2011,07,06,19,03,1.60
2011,07,06,19,04,3.20
2011,07,06,19,05,1.60
2011,07,06,19,06,1.60
2011,07,06,19,07,1.60
2011,07,06,19,11,3.20
2011,07,06,19,12,3.20
2011,07,06,19,14,1.60
2011,07,06,19,15,1.60
2011,07,06,19,18,1.60
2011,07,06,19,19,1.60
2011,07,06,19,24,3.20
2011,07,06,19,25,1.60
2011,07,06,19,27,1.60
2011,07,06,19,28,3.20
2011,07,06,19,31,3.20
2011,07,06,19,32,3.20
2011,07,06,19,33,1.60
2011,07,06,19,34,1.60
2011,07,06,19,36,1.60
2011,07,06,19,37,1.60
2011,07,06,19,38,1.60
2011,07,06,19,40,1.60
2011,07,06,19,41,1.60
2011,07,06,19,42,1.60
2011,07,06,19,43,6.40
2011,07,06,19,44,8.10
2011,07,06,19,45,8.10
2011,07,06,19,46,8.10
2011,07,06,19,47,1.60
2011,07,06,19,48,4.80
2011,07,06,19,49,4.80
2011,07,06,19,50,3.20
2011,07,06,19,51,3.20
2011,07,06,19,52,1.60
2011,07,06,19,54,1.60
2011,07,06,19,55,1.60
2011,07,06,19,56,1.60
2011,07,06,19,57,3.20
2011,07,06,19,58,3.20
2011,07,06,19,59,1.60
2011,07,06,20,00,1.60
2011,07,06,20,01,1.60
2011,07,06,20,02,3.20
2011,07,06,20,03,3.20
2011,07,06,20,05,1.60
2011,07,06,20,06,1.60
2011,07,06,20,09,1.60
2011,07,06,20,10,1.60
2011,07,06,20,11,3.20
2011,07,06,20,12,3.20
2011,07,06,20,13,3.20
2011,07,06,20,14,1.60
2011,07,06,20,15,3.20
2011,07,06,20,16,1.60
2011,07,06,20,17,1.60
2011,07,06,20,27,1.60
2011,07,06,20,28,1.60
2011,07,06,20,31,1.60
2011,07,06,20,32,1.60
2011,07,06,20,33,1.60
2011,07,06,20,34,1.60
2011,07,06,20,35,3.20
2011,07,06,20,36,3.20
2011,07,06,20,37,4.80
2011,07,06,20,38,6.40
2011,07,06,20,39,3.20
2011,07,06,20,40,3.20
2011,07,06,20,41,3.20
2011,07,06,20,42,1.60
2011,07,06,20,46,3.20
2011,07,06,20,47,1.60
2011,07,06,20,50,1.60
2011,07,06,21,43,1.60
2011,07,06,21,47,1.60
2011,07,06,21,48,1.60
2011,07,06,21,49,1.60
2011,07,06,21,50,1.60
2011,07,06,21,52,1.60
2011,07,06,21,55,1.60
2011,07,06,21,56,3.20
2011,07,06,21,57,1.60
2011,07,06,21,58,3.20
2011,07,06,21,59,1.60
2011,07,06,22,39,1.60
2011,07,06,22,40,1.60
2011,07,06,22,51,1.60
2011,07,06,22,52,1.60
2011,07,06,23,18,1.60
2011,07,06,23,31,1.60
2011,07,06,23,32,3.20
2011,07,06,23,33,1.60
2011,07,06,23,35,1.60
2011,07,06,23,38,1.60
2011,07,06,23,40,3.20
2011,07,06,23,41,3.20
2011,07,06,23,42,3.20
2011,07,06,23,43,1.60
2011,07,06,23,44,1.60
2011,07,06,23,56,1.60
